Location: ???????
(54.6339°N, 39.4245°E)
Time: 11:00:31
(UTC+00:00)

Meteor 1-21 - Pass Details

Date: 19 May 2025
Orbit: 845 x 884 km, 81.2° (Epoch: 13 June)

Event Time Altitude Azimuth Distance (km) Brightness Sun altitude
Exits shadow 23:24:55 14° 202° (SSW) 2,214 5.7 -10.7°
Maximum altitude 23:29:50 72° 286° (WNW) 896 4.3 -10.3°
Drops below altitude 10° 23:35:30 10° 11° (NNE) 2,499 7.9 -9.9°
Sets 23:37:58 0° 14° (NNE) 3,444 9.0 -9.7°
